Location: Pine Mountain Observatory
(43.7910°N, 120.9377°W)
Time: 11:54:07
(UTC-07:00)

Courier 1B - Visible Passes

Search period start: 24 May 2019 00:00
Search period end: 03 June 2019 00:00
Orbit: 963 x 1209 km, 28.3° (Epoch: 24 May)

Date Brightness Start Highest point End Pass type
(mag) Time Alt. Az. Time Alt. Az. Time Alt. Az.
28 May 9.5 04:40:04 10° S 04:42:12 12° SSE 04:44:18 10° SE visible
30 May 9.3 04:44:02 10° SSW 04:48:06 16° SSE 04:52:04 10° SE visible
31 May 9.4 03:51:55 12° S 03:54:36 14° SSE 03:58:04 10° SE visible
01 Jun 9.5 03:01:12 12° SSE 03:01:12 12° SSE 03:03:40 10° SE visible
02 Jun 9.1 03:57:20 14° SSW 04:00:32 19° S 04:05:07 10° SE visible
